7 * 24
多渠道服务支持
JILIN-1 GAOFEN 3D 是由中国长光卫星技术有限公司研制的高分辨率光学遥感卫星,属于吉林一号卫星星座的一部分。该卫星具备高精度立体成像能力,可提供亚米级分辨率的遥感影像,广泛应用于资源调查、城市规划、灾害监测等领域。其先进成像技术和稳定运行性能,为遥感数据获取和应用提供了重要支持,提升了中国在商业遥感领域的竞争力和技术水平。
数据来源 | 国际轨道数据 |
星历时间: | 2025-10-18T07:21:33+0800 6小时前 查看轨道信息 |
半长轴: | 6744.333km |
偏心率: | 0.0001325 |
轨道倾角: | 97.267° |
近地点辐角 | 250.569° |
升交点赤经 | 344.660° |
平近点角 | 109.543° |
近地点: | 365.304km |
远地点: | 367.092km |
周期: | 91.869分钟 |
每日圈数: | 15.674523 |